Flag for Canada Weather past 2 weeks in Kitchener, Ontario, Canada

Now
66 °F

Overcast.


Feels Like: 66 °F
Forecast: N/A
Wind: 16 mph from North

Location: Waterloo Well

Current Time: Jul 23, 2014 at 5:19:05 PM

Latest Report: Jul 23, 2014 at 4:00 PM


Visibility: 9 mi

Pressure: 29.99 "Hg

Humidity: 68%

Dew point: 55 °F

Location of KitchenerLocation

Historic Weather in Kitchener — Graph

°F

Kitchener temperature yesterday

Maximum temperature yesterday: 82 °F (at 7:00 PM)
Minimum temperature yesterday: 55 °F (at 6:00 AM)
Average temperature yesterday: 67 °F

Past Weeks' High & Low Weather Summary

 TemperatureHumidityPressure
High82 °F (Jul 21, 4:00 PM)100% (Jul 10, 1:00 AM)30.26 "Hg (Jul 10, 1:00 AM)
Low45 °F (Jul 17, 4:00 AM)34% (Jul 17, 3:00 PM)29.54 "Hg (Jul 8, 4:00 PM)
Average64 °F77%30.01 "Hg
* Reported Jul 8 4:00 PM — Jul 23 4:00 PM, Kitchener, Weather by CustomWeather, © 2014

Note: Actual official high and low records may vary slightly from our data, if they occured in-between our weather recording intervals... More about our weather records

Advertising

Kitchener weather history for previous 24 hours

 ConditionsComfort  
Time TempWeatherWind HumidityBarometerVisibility
4:00 PM
Jul 23
66 °FOvercast.16 mph68%29.99 "Hg9 mi
3:00 PM68 °FPartly sunny.15 mph64%29.99 "Hg9 mi
2:00 PM70 °FPartly sunny.14 mph64%29.97 "Hg9 mi
1:00 PM70 °FPartly sunny.13 mph64%29.96 "Hg9 mi
12:00 PM70 °FPartly sunny.14 mph69%29.94 "Hg9 mi
11:00 AM66 °FOvercast.10 mph78%29.93 "Hg9 mi
10:00 AM64 °FOvercast.14 mph83%29.90 "Hg9 mi
9:00 AM63 °FLow clouds.14 mph88%29.92 "Hg9 mi
8:00 AM64 °FPartly sunny.15 mph88%29.90 "Hg9 mi
7:00 AM68 °FOvercast.12 mph83%29.89 "Hg9 mi
6:00 AM73 °FPassing clouds.14 mph83%29.87 "Hg7 mi
5:00 AM72 °FPassing clouds.8 mph83%29.86 "Hg9 mi
4:00 AM73 °FOvercast.15 mph83%29.85 "Hg6 mi
1:00 AM73 °FThunderstorms. Overcast.8 mph78%29.91 "Hg9 mi
12:00 AM75 °FThundershowers. Overcast.8 mph74%29.92 "Hg9 mi
11:00 PM
Jul 22
75 °FOvercast.7 mph74%29.94 "Hg9 mi
10:00 PM75 °FPassing clouds.8 mph74%29.92 "Hg9 mi
9:00 PM75 °FSunny.8 mph69%29.92 "Hg9 mi
8:00 PM79 °FSunny.8 mph58%29.95 "Hg9 mi
7:00 PM82 °FSunny.14 mph51%29.96 "Hg9 mi
Weather by CustomWeather, © 2014

See weather overviewHow to use our weather pages